| time (UTC) | temp C | wind direction | speed KPH | gust KPH | rain 1hr cm | rain 24hr cm | rain mn cm | humidity % | barometer mb |
| 20260906200602 | 41 | 49 | 9.7 | 11.3 | 0.00 | 0.00 | 0.00 | 28 | 1052.8 |
| 20260906195102 | 41 | 128 | 4.8 | 11.3 | 0.00 | 0.00 | 0.00 | 27 | 1053.2 |
| 20260906194102 | 41 | 147 | 8.0 | 11.3 | 0.00 | 0.00 | 0.00 | 27 | 1053.2 |
| 20260906185602 | 37 | 50 | 0.0 | 11.3 | 0.00 | 0.00 | 0.00 | 37 | 1053.8 |
| 20260906175602 | 37 | 158 | 11.3 | 14.5 | 0.00 | 0.00 | 0.00 | 36 | 1054.5 |
| 20260906174102 | 39 | 142 | 4.8 | 6.4 | 0.00 | 0.00 | 0.00 | 34 | 1054.9 |
| 20260906171602 | 38 | 178 | 4.8 | 12.9 | 0.00 | 0.00 | 0.00 | 34 | 1055.2 |
| 20260906170103 | 38 | 176 | 1.6 | 8.0 | 0.00 | 0.00 | 0.00 | 36 | 1055.5 |
| 20260906164602 | 36 | 188 | 6.4 | 8.0 | 0.00 | 0.00 | 0.00 | 39 | 1055.9 |
| 20260906163102 | 37 | 256 | 3.2 | 9.7 | 0.00 | 0.00 | 0.00 | 37 | 1055.9 |
| 20260906161602 | 37 | 266 | 6.4 | 6.4 | 0.00 | 0.00 | 0.00 | 38 | 1055.9 |
| 20260906160103 | 37 | 321 | 6.4 | 6.4 | 0.00 | 0.00 | 0.00 | 37 | 1055.5 |
| 20260906154602 | 37 | 166 | 3.2 | 6.4 | 0.00 | 0.00 | 0.00 | 38 | 1055.5 |
| 20260906153102 | 36 | 228 | 0.0 | 4.8 | 0.00 | 0.00 | 0.00 | 40 | 1055.5 |
| 20260906151602 | 35 | 217 | 3.2 | 8.0 | 0.00 | 0.00 | 0.00 | 42 | 1055.5 |
| 20260906145102 | 34 | 240 | 3.2 | 9.7 | 0.00 | 0.00 | 0.00 | 44 | 1055.5 |
| 20260906143602 | 33 | 181 | 3.2 | 4.8 | 0.00 | 0.00 | 0.00 | 46 | 1055.2 |
| 20260906142102 | 33 | 145 | 0.0 | 3.2 | 0.00 | 0.00 | 0.00 | 47 | 1055.5 |
| 20260906140602 | 32 | 154 | 0.0 | 3.2 | 0.00 | 0.00 | 0.00 | 48 | 1055.2 |
| 20260906135102 | 30 | 174 | 3.2 | 6.4 | 0.00 | 0.00 | 0.00 | 53 | 1055.2 |
| 20260906133603 | 29 | 185 | 1.6 | 4.8 | 0.00 | 0.00 | 0.00 | 56 | 1054.9 |
| 20260906132103 | 27 | 163 | 0.0 | 4.8 | 0.00 | 0.00 | 0.00 | 59 | 1054.9 |
| 20260906130602 | 27 | 159 | 0.0 | 0.0 | 0.00 | 0.00 | 0.00 | 61 | 1054.9 |
| 20260906125103 | 26 | 146 | 0.0 | 0.0 | 0.00 | 0.00 | 0.00 | 62 | 1054.5 |
| 20260906123602 | 26 | 148 | 0.0 | 0.0 | 0.00 | 0.00 | 0.00 | 64 | 1054.5 |
| 20260906122102 | 25 | 151 | 0.0 | 0.0 | 0.00 | 0.00 | 0.00 | 65 | 1054.2 |
| 20260906120602 | 25 | 158 | 0.0 | 0.0 | 0.00 | 0.00 | 0.00 | 64 | 1054.2 |
| 20260906115102 | 26 | 142 | 0.0 | 0.0 | 0.00 | 0.00 | 0.00 | 64 | 1054.2 |
| 20260906113603 | 26 | 116 | 3.2 | 3.2 | 0.00 | 0.00 | 0.00 | 64 | 1053.8 |
| 20260906112103 | 26 | 136 | 0.0 | 3.2 | 0.00 | 0.00 | 0.00 | 63 | 1053.8 |
| 20260906105102 | 26 | 150 | 0.0 | 0.0 | 0.00 | 0.00 | 0.00 | 62 | 1053.5 |
| 20260906103602 | 26 | 143 | 0.0 | 0.0 | 0.00 | 0.00 | 0.00 | 62 | 1053.5 |
| 20260906102102 | 26 | 163 | 0.0 | 3.2 | 0.00 | 0.00 | 0.00 | 61 | 1053.2 |
| 20260906100602 | 26 | 151 | 0.0 | 0.0 | 0.00 | 0.00 | 0.00 | 61 | 1053.2 |
| 20260906095102 | 27 | 156 | 0.0 | 0.0 | 0.00 | 0.00 | 0.00 | 59 | 1053.5 |
| 20260906092102 | 27 | 121 | 1.6 | 3.2 | 0.00 | 0.00 | 0.00 | 58 | 1053.5 |
| 20260906083603 | 27 | 146 | 0.0 | 0.0 | 0.00 | 0.00 | 0.00 | 56 | 1053.2 |
| 20260906080603 | 27 | 155 | 0.0 | 0.0 | 0.00 | 0.00 | 0.00 | 55 | 1053.2 |
| 20260906075104 | 27 | 139 | 0.0 | 0.0 | 0.00 | 0.00 | 0.00 | 55 | 1053.2 |
| 20260906073602 | 28 | 138 | 0.0 | 0.0 | 0.00 | 0.00 | 0.00 | 54 | 1053.2 |
| 20260906072102 | 28 | 154 | 0.0 | 0.0 | 0.00 | 0.00 | 0.00 | 53 | 1053.2 |
| 20260906071102 | 28 | 149 | 0.0 | 0.0 | 0.00 | 0.00 | 0.00 | 53 | 1053.2 |
| 20260906065602 | 28 | 158 | 0.0 | 0.0 | 0.00 | 0.00 | 0.00 | 53 | 1053.2 |
| 20260906063102 | 28 | 138 | 0.0 | 0.0 | 0.00 | 0.00 | 0.00 | 51 | 1053.2 |
| 20260906061602 | 29 | 167 | 3.2 | 3.2 | 0.00 | 0.00 | 0.00 | 50 | 1053.5 |
| 20260906054602 | 30 | 164 | 0.0 | 0.0 | 0.00 | 0.00 | 0.00 | 49 | 1053.2 |
| 20260906053102 | 30 | 157 | 0.0 | 1.6 | 0.00 | 0.00 | 0.00 | 48 | 1052.8 |
| 20260906051604 | 30 | 162 | 0.0 | 4.8 | 0.00 | 0.00 | 0.00 | 48 | 1053.2 |
| 20260906045102 | 30 | 159 | 0.0 | 1.6 | 0.00 | 0.00 | 0.00 | 48 | 1052.8 |
| 20260906042103 | 31 | 158 | 0.0 | 3.2 | 0.00 | 0.00 | 0.00 | 46 | 1052.8 |
| 20260906041102 | 31 | 161 | 0.0 | 1.6 | 0.00 | 0.00 | 0.00 | 46 | 1053.2 |
| 20260906034604 | 32 | 160 | 3.2 | 6.4 | 0.00 | 0.00 | 0.00 | 44 | 1053.2 |
| 20260906033103 | 32 | 157 | 3.2 | 6.4 | 0.00 | 0.00 | 0.00 | 44 | 1052.8 |
| 20260906031603 | 32 | 163 | 8.0 | 8.0 | 0.00 | 0.00 | 0.00 | 43 | 1052.8 |
| 20260906023103 | 33 | 154 | 3.2 | 6.4 | 0.00 | 0.00 | 0.00 | 41 | 1052.5 |
| 20260906012102 | 34 | 132 | 4.8 | 8.0 | 0.00 | 0.00 | 0.00 | 38 | 1051.8 |
| 20260906005603 | 35 | 152 | 4.8 | 11.3 | 0.00 | 0.00 | 0.00 | 37 | 1051.8 |
| 20260906001602 | 36 | 127 | 9.7 | 12.9 | 0.00 | 0.00 | 0.00 | 34 | 1051.5 |
| 20260905232102 | 37 | 179 | 6.4 | 6.4 | 0.00 | 0.00 | 0.00 | 32 | 1051.1 |
| 20260905230603 | 38 | 207 | 3.2 | 12.9 | 0.00 | 0.00 | 0.00 | 32 | 1051.1 |
| 20260905223602 | 38 | 79 | 3.2 | 9.7 | 0.00 | 0.00 | 0.00 | 31 | 1051.1 |
| 20260905222102 | 39 | 236 | 4.8 | 14.5 | 0.00 | 0.00 | 0.00 | 31 | 1051.1 |
| 20260905213602 | 39 | 190 | 20.9 | 20.9 | 0.00 | 0.00 | 0.00 | 29 | 1051.5 |
| 20260905212103 | 38 | 166 | 4.8 | 16.1 | 0.00 | 0.00 | 0.00 | 30 | 1051.8 |
| 20260905205102 | 39 | 185 | 11.3 | 16.1 | 0.00 | 0.00 | 0.00 | 31 | 1052.2 |